Everett, WA

8:49 PM PDT on May 25, 2017 (GMT -0700)
Snohomish County

Weather History for KPAE - April, 2013

Change the Weather History Date:

Saturday, April 13, 2013

  Actual Average Record
Temperature  
Mean Temperature 41 °F -  
Max Temperature 46 °F 57 °F 74 °F (1980)
Min Temperature 36 °F 39 °F 28 °F (1968)
Degree Days  
Heating Degree Days 24    
Moisture  
Dew Point 36 °F    
Average Humidity 79    
Maximum Humidity 89    
Minimum Humidity 70    
Precipitation  
Precipitation 0.07 in - - ()
Sea Level Pressure  
Sea Level Pressure 29.90 in    
Wind  
Wind Speed 7 mph (South)    
Max Wind Speed 15 mph    
Max Gust Speed 21 mph    
Visibility 10 miles    
Events Rain    
Averages and records for this station are not official NWS values.
T = Trace of Precipitation, MM = Missing Value Source: NWS Daily Summary

Daily Weather History Graph

Daily Weather History Graph

Search for Another Location

Airport or City:

Trip Planner

Search our weather history database for the weather conditions in past years. The results will help you decide how hot, cold, wet, or windy it might be!

Date:

Astronomy

Apr. 13, 2013 Rise Set
Actual Time 6:22 AM PDT 7:56 PM PDT
Civil Twilight 5:50 AM PDT 8:29 PM PDT
Nautical Twilight 5:11 AM PDT 9:09 PM PDT
Astronomical Twilight 4:28 AM PDT 9:52 PM PDT
Moon 8:06 AM PDT (4/13) 11:38 PM PDT (4/13)
Length of Visible Light 14h 38m
Length of Day
13h 33m
Waxing Crescent, 11% of the Moon is Illuminated
Apr 13
Waxing Crescent
Apr 18
First Quarter
Apr 25
Full
May 2
Last Quarter
May 9
New

Hourly Weather History & Observations

Time (PDT) Temp. Windchill Dew Point Humidity Pressure Visibility Wind Dir Wind Speed Gust Speed Precip Events Conditions
12:53 AM 39.9 °F 35.8 °F 32.0 °F 73% 29.78 in 10.0 mi SSW 5.8 mph - 0.00 in   Overcast
1:40 AM 39.2 °F 35.0 °F 30.2 °F 70% 29.79 in 10.0 mi Variable 5.8 mph - 0.00 in   Overcast
1:53 AM 39.9 °F 34.5 °F 30.9 °F 70% 29.80 in 10.0 mi West 8.1 mph - 0.00 in Rain Light Rain
2:08 AM 39.2 °F 35.0 °F 30.2 °F 70% 29.80 in 10.0 mi Variable 5.8 mph - 0.00 in   Mostly Cloudy
2:53 AM 37.9 °F - 30.0 °F 73% 29.82 in 10.0 mi Calm Calm - 0.00 in   Clear
3:53 AM 37.0 °F 32.4 °F 32.0 °F 82% 29.85 in 10.0 mi South 5.8 mph - N/A   Mostly Cloudy
4:53 AM 37.0 °F 30.4 °F 32.0 °F 82% 29.87 in 10.0 mi SSE 9.2 mph - N/A   Overcast
5:53 AM 37.0 °F 30.4 °F 33.1 °F 86% 29.88 in 10.0 mi SSE 9.2 mph - N/A   Overcast
6:53 AM 36.0 °F 28.5 °F 33.1 °F 89% 29.87 in 10.0 mi SSE 10.4 mph - N/A   Overcast
7:53 AM 37.9 °F 30.9 °F 34.0 °F 86% 29.88 in 10.0 mi South 10.4 mph - 0.00 in   Overcast
8:48 AM 39.2 °F 32.0 °F 33.8 °F 81% 29.87 in 10.0 mi South 11.5 mph - N/A   Overcast
8:53 AM 39.0 °F 30.6 °F 34.0 °F 82% 29.88 in 10.0 mi South 15.0 mph 20.7 mph N/A   Overcast
9:53 AM 39.9 °F 33.4 °F 34.0 °F 79% 29.88 in 10.0 mi SSE 10.4 mph - N/A   Overcast
10:53 AM 41.0 °F 34.3 °F 35.1 °F 79% 29.89 in 10.0 mi SSW 11.5 mph - N/A   Overcast
11:53 AM 43.0 °F 36.8 °F 37.9 °F 82% 29.89 in 10.0 mi South 11.5 mph - 0.00 in Rain Light Rain
12:53 PM 46.0 °F 41.0 °F 37.0 °F 71% 29.89 in 10.0 mi SW 10.4 mph - 0.00 in   Overcast
1:53 PM 46.0 °F 39.9 °F 37.9 °F 73% 29.89 in 10.0 mi SSE 13.8 mph - 0.01 in   Mostly Cloudy
2:53 PM 46.0 °F 42.5 °F 39.9 °F 79% 29.90 in 9.0 mi South 6.9 mph - 0.00 in Rain Light Rain
3:53 PM 46.0 °F 43.1 °F 39.9 °F 79% 29.91 in 10.0 mi South 5.8 mph - 0.05 in   Mostly Cloudy
4:04 PM 46.4 °F 44.3 °F 39.2 °F 76% 29.90 in 10.0 mi Variable 4.6 mph - N/A   Mostly Cloudy
4:53 PM 46.4 °F - 39.2 °F 76% 29.90 in 10.0 mi Calm Calm - N/A Rain Light Rain
5:42 PM 44.6 °F 41.4 °F 39.2 °F 81% 29.91 in 10.0 mi North 5.8 mph - N/A   Mostly Cloudy
5:53 PM 43.0 °F 39.5 °F 39.0 °F 86% 29.93 in 10.0 mi NNE 5.8 mph - 0.00 in Rain Light Rain
6:00 PM 42.8 °F 41.1 °F 39.2 °F 87% 29.91 in 10.0 mi NNE 3.5 mph - 0.01 in Rain Light Rain
6:53 PM 44.1 °F 42.5 °F 37.0 °F 76% 29.94 in 10.0 mi Variable 3.5 mph - 0.01 in   Mostly Cloudy
7:53 PM 42.1 °F 40.2 °F 36.0 °F 79% 29.94 in 10.0 mi NW 3.5 mph - N/A   Partly Cloudy
8:53 PM 42.1 °F 40.2 °F 36.0 °F 79% 29.97 in 10.0 mi NW 3.5 mph - N/A   Mostly Cloudy
9:53 PM 42.1 °F - 37.0 °F 82% 29.98 in 10.0 mi Calm Calm - N/A   Overcast
10:53 PM 42.1 °F - 37.9 °F 85% 29.99 in 10.0 mi Calm Calm - N/A   Overcast
11:16 PM 42.8 °F 40.1 °F 37.4 °F 81% 29.98 in 10.0 mi WSW 4.6 mph - N/A   Overcast
11:32 PM 41.0 °F - 37.4 °F 87% 29.99 in 10.0 mi Calm Calm - N/A   Overcast
11:53 PM 42.1 °F - 37.0 °F 82% 30.00 in 10.0 mi Calm Calm - N/A   Overcast